Houston Hull, TX

2:29 PM CST on November 13, 2019 (GMT -0600)
Sugar Land Municipal-Hull

Weather History for KSGR - September, 2019

Change the Weather History Date:

Wednesday, September 11, 2019

  Actual Average Record
Temperature  
Mean Temperature 84 °F -  
Max Temperature 93 °F 89 °F 98 °F (1997)
Min Temperature 75 °F 70 °F 63 °F (1968)
Cooling Degree Days 19    
Growing Degree Days 34 (Base 50)    
Moisture  
Dew Point 75 °F    
Average Humidity 82    
Maximum Humidity 100    
Minimum Humidity 51    
Precipitation  
Precipitation 0.03 in - - ()
Sea Level Pressure  
Sea Level Pressure 30.07 in    
Wind  
Wind Speed 5 mph (SE)    
Max Wind Speed 14 mph    
Max Gust Speed -    
Visibility 10 miles    
Events Rain , Thunderstorm    
Averages and records for this station are not official NWS values.
T = Trace of Precipitation, MM = Missing Value Source: NWS Daily Summary

Daily Weather History Graph

Daily Weather History Graph

Search for Another Location

Airport or City:

Astronomy

Sep. 11, 2019 Rise Set
Actual Time 7:05 AM CDT 7:32 PM CDT
Civil Twilight 6:41 AM CDT 7:56 PM CDT
Nautical Twilight 6:13 AM CDT 8:24 PM CDT
Astronomical Twilight 5:44 AM CDT 8:53 PM CDT
Moon 6:31 PM CDT (9/11) 4:44 AM CDT (9/11)
Length of Visible Light 13h 15m
Length of Day
12h 27m
Waxing Gibbous, 95% of the Moon is Illuminated
Sep 11
Waxing Gibbous
Sep 13
Full
Sep 21
Last Quarter
Sep 28
New
Oct 5
First Quarter

Hourly Weather History & Observations

Time (CDT) Temp. Heat Index Dew Point Humidity Pressure Visibility Wind Dir Wind Speed Gust Speed Precip Events Conditions
12:53 AM 79.0 °F - 77.0 °F 94% 30.08 in 10.0 mi SE 5.8 mph - N/A   Clear
1:53 AM 79.0 °F - 77.0 °F 94% 30.07 in 10.0 mi SE 4.6 mph - N/A   Clear
2:53 AM 78.1 °F - 75.9 °F 93% 30.06 in 10.0 mi SE 4.6 mph - N/A   Partly Cloudy
3:53 AM 78.1 °F - 77.0 °F 96% 30.06 in 10.0 mi SSE 4.6 mph - N/A   Clear
4:53 AM 75.9 °F - 75.9 °F 100% 30.06 in 9.0 mi Calm Calm - N/A   Clear
5:53 AM 79.0 °F - 78.1 °F 97% 30.07 in 10.0 mi Calm Calm - N/A   Clear
6:53 AM 80.1 °F 86.4 °F 78.1 °F 94% 30.09 in 10.0 mi ESE 4.6 mph - N/A   Clear
7:08 AM 80.1 °F 86.4 °F 78.1 °F 94% 30.10 in 10.0 mi SE 3.5 mph - N/A Thunderstorm Clear
7:36 AM 77.0 °F - 75.0 °F 94% 30.12 in 7.0 mi SE 13.8 mph - 0.01 in Rain Light Rain
7:53 AM 75.9 °F - 73.9 °F 94% 30.11 in 10.0 mi SSW 5.8 mph - 0.03 in   Mostly Cloudy
8:53 AM 77.0 °F - 73.0 °F 88% 30.13 in 10.0 mi ESE 4.6 mph - 0.00 in   Clear
9:53 AM 77.0 °F - 73.9 °F 90% 30.13 in 10.0 mi Calm Calm - 0.00 in   Partly Cloudy
10:53 AM 82.0 °F 87.9 °F 73.9 °F 76% 30.13 in 10.0 mi SE 6.9 mph - 0.00 in   Clear
11:53 AM 86.0 °F 95.1 °F 75.0 °F 70% 30.11 in 10.0 mi East 4.6 mph - N/A   Clear
12:53 PM 90.0 °F 99.0 °F 73.9 °F 59% 30.10 in 10.0 mi SE 6.9 mph - N/A   Clear
1:53 PM 91.9 °F 103.9 °F 75.9 °F 59% 30.08 in 10.0 mi SSE 9.2 mph - N/A   Partly Cloudy
2:53 PM 93.0 °F 103.2 °F 73.9 °F 54% 30.04 in 10.0 mi SSE 9.2 mph - N/A   Mostly Cloudy
3:53 PM 93.9 °F 103.4 °F 73.0 °F 51% 30.03 in 10.0 mi SE 12.7 mph - N/A   Partly Cloudy
4:53 PM 91.0 °F 102.9 °F 75.9 °F 61% 30.03 in 10.0 mi East 13.8 mph - N/A   Clear
5:25 PM 90.0 °F 100.2 °F 75.0 °F 61% 30.02 in 10.0 mi East 13.8 mph - N/A Thunderstorm Partly Cloudy
5:34 PM 87.1 °F 93.6 °F 72.0 °F 61% 30.02 in 10.0 mi ESE 10.4 mph - N/A Thunderstorm Thunderstorm
5:53 PM 81.0 °F 85.8 °F 73.0 °F 77% 30.04 in 10.0 mi South 11.5 mph - 0.00 in Rain , Thunderstorm Light Thunderstorms and Rain
6:13 PM 81.0 °F 86.2 °F 73.9 °F 79% 30.04 in 10.0 mi SSE 3.5 mph - 0.00 in Thunderstorm Scattered Clouds
6:23 PM 81.0 °F 86.7 °F 75.0 °F 82% 30.05 in 10.0 mi Calm Calm - 0.00 in Thunderstorm Thunderstorm
6:53 PM 80.1 °F 84.2 °F 73.0 °F 79% 30.06 in 10.0 mi NNW 3.5 mph - 0.00 in Thunderstorm Thunderstorm
7:05 PM 80.1 °F 85.1 °F 75.0 °F 85% 30.05 in 10.0 mi West 3.5 mph - N/A   Mostly Cloudy
7:30 PM 80.1 °F 85.4 °F 75.9 °F 87% 30.06 in 10.0 mi NW 4.6 mph - N/A   Mostly Cloudy
7:53 PM 80.1 °F 85.1 °F 75.0 °F 85% 30.08 in 10.0 mi West 6.9 mph - N/A   Mostly Cloudy
8:53 PM 75.9 °F - 73.9 °F 94% 30.07 in 10.0 mi Calm Calm - 0.00 in Rain Light Rain
9:53 PM 78.1 °F - 73.9 °F 87% 30.06 in 10.0 mi ENE 5.8 mph - 0.00 in   Clear
10:53 PM 77.0 °F - 73.9 °F 90% 30.06 in 10.0 mi Calm Calm - N/A   Clear
11:53 PM 75.0 °F - 73.9 °F 96% 30.06 in 10.0 mi Calm Calm - N/A   Partly Cloudy